CYBX

Lourdes de Blanc Sablon  Airport

Lourdes-De-Blanc-Sablon, Quebec, Canada
Issued Wind Visibility Ceiling Temperature Dew Point Humidity Barometer
Nov-25
01:00 UTC
270°
17 KTS
Gust 25 KTS
15 miles   -6° C
21° F
-11° C
12° F
68% 29.76" Hg
1008.3 hPa
VFR
Nov-25
00:00 UTC
280°
12 KTS
Gust 22 KTS
15 miles   -5° C
23° F
-10° C
14° F
68% 29.71" Hg
1006.5 hPa
VFR
Nov-24
23:00 UTC
290°
12 KTS
Gust 19 KTS
15 miles   -4° C
25° F
-9° C
16° F
69% 29.66" Hg
1004.8 hPa
VFR
Nov-24
22:00 UTC
290°
12 KTS
Gust 20 KTS
15 miles Broken
3,000' AGL
-4° C
25° F
-9° C
16° F
69% 29.61" Hg
1002.9 hPa
MVFR
Nov-24
21:00 UTC
290°
10 KTS
Gust 16 KTS
15 miles Broken
2,500' AGL
-2° C
28° F
-6° C
21° F
74% 29.55" Hg
1001 hPa
MVFR
Nov-24
20:53 UTC
280°
12 KTS
15 miles Broken
2,500' AGL
-2° C
28° F
-7° C
19° F
69% 29.55" Hg
1000.9 hPa
MVFR
Nov-24
20:00 UTC
270°
9 KTS
15 miles Broken
7,500' AGL
-2° C
28° F
-7° C
19° F
69% 29.52" Hg
999.9 hPa
VFR
Nov-24
19:00 UTC
280°
10 KTS
Gust 18 KTS
15 miles Broken
8,000' AGL
-2° C
28° F
-7° C
19° F
69% 29.5" Hg
999.2 hPa
VFR
Nov-24
18:00 UTC
260°
18 KTS
Gust 24 KTS
15 miles Broken
11,000' AGL
-1° C
30° F
-7° C
19° F
64% 29.49" Hg
998.9 hPa
VFR
Nov-24
17:00 UTC
250°
22 KTS
Gust 28 KTS
15 miles Broken
10,000' AGL
-1° C
30° F
-7° C
19° F
64% 29.47" Hg
998.3 hPa
VFR
Nov-24
16:00 UTC
260°
21 KTS
Gust 32 KTS
15 miles Broken
8,000' AGL
-1° C
30° F
-4° C
25° F
80% 29.46" Hg
998 hPa
VFR
Nov-24
15:00 UTC
250°
19 KTS
Gust 25 KTS
15 miles Broken
2,000' AGL
C
32° F
-4° C
25° F
75% 29.46" Hg
997.9 hPa
MVFR
Nov-24
14:00 UTC
270°
17 KTS
Gust 23 KTS
15 miles Overcast
1,500' AGL
C
32° F
-3° C
27° F
80% 29.46" Hg
998 hPa
MVFR
Nov-24
13:00 UTC
260°
13 KTS
Gust 19 KTS
15 miles Broken
1,500' AGL
C
32° F
-2° C
28° F
87% 29.45" Hg
997.7 hPa
MVFR
Nov-24
12:00 UTC
260°
12 KTS
Gust 19 KTS
15 miles Overcast
2,500' AGL
C
32° F
-2° C
28° F
87% 29.45" Hg
997.6 hPa
MVFR
Nov-24
11:00 UTC
250°
13 KTS
15 miles Overcast
1,500' AGL
C
34° F
-1° C
30° F
87% 29.43" Hg
996.9 hPa
MVFR
Nov-24
10:00 UTC
270°
10 KTS
15 miles Overcast
1,500' AGL
C
34° F
-1° C
30° F
87% 29.42" Hg
996.5 hPa
MVFR
Nov-24
09:00 UTC
280°
12 KTS
Gust 17 KTS
15 miles Overcast
1,500' AGL
C
34° F
-2° C
28° F
81% 29.4" Hg
995.8 hPa
MVFR
Nov-24
08:00 UTC
260°
13 KTS
Gust 19 KTS
15 miles Overcast
1,900' AGL
C
34° F
-1° C
30° F
87% 29.39" Hg
995.7 hPa
MVFR
Nov-24
07:00 UTC
260°
14 KTS
Gust 20 KTS
15 miles Overcast
1,700' AGL
C
34° F
-1° C
30° F
87% 29.37" Hg
995 hPa
MVFR
Nov-24
06:00 UTC
260°
17 KTS
Gust 23 KTS
15 miles Overcast
2,100' AGL
C
34° F
-1° C
30° F
87% 29.35" Hg
994.4 hPa
MVFR
Nov-24
05:00 UTC
270°
12 KTS
Gust 18 KTS
15 miles Overcast
1,900' AGL
C
36° F
-1° C
30° F
81% 29.33" Hg
993.7 hPa
MVFR
Nov-24
04:00 UTC
260°
16 KTS
Gust 21 KTS
15 miles Overcast
6,500' AGL
C
36° F
C
32° F
87% 29.3" Hg
992.7 hPa
VFR
Nov-24
03:00 UTC
270°
14 KTS
Gust 22 KTS
15 miles   C
36° F
C
34° F
93% 29.27" Hg
991.5 hPa
VFR
Nov-24
02:00 UTC
270°
14 KTS
Gust 22 KTS
15 miles Overcast
1,600' AGL
C
36° F
C
34° F
93% 29.23" Hg
990.1 hPa
MVFR